This is the latest recevied weather packets stored in our database for station/object HP3ICC-16. If no packets are shown the sender has not sent any weather packets the latest 1 day(s).
| Time | Temp. | Humidity | Pressure | Rain* | Wind** | Luminosity | Snow |
|---|---|---|---|---|---|---|---|
| 1836274553 | 23.89° C | 87% | 1012 hPa | 0 mm | 1.79 m/s, 40° | - | - |
| 1836274493 | 23.89° C | 87% | 1012 hPa | 0 mm | 1.79 m/s, 40° | - | - |
| 1778047456 | 23.33° C | 92% | 1010 hPa | 0 mm | 0.45 m/s, 21° | - | - |
| 1778047396 | 23.33° C | 92% | 1010 hPa | 0 mm | 0.45 m/s, 21° | - | - |
| 1778046256 | 23.89° C | 92% | 1010 hPa | 0 mm | 0.45 m/s, 21° | - | - |
| 1778046196 | 23.89° C | 92% | 1010 hPa | 0 mm | 0.45 m/s, 21° | - | - |
| 1778045055 | 24.44° C | 92% | 1011 hPa | 0 mm | 0.89 m/s, 21° | - | - |
| 1778044995 | 24.44° C | 92% | 1011 hPa | 0 mm | 0.89 m/s, 21° | - | - |
| 1778043855 | 22.78° C | 94% | 1011 hPa | 0 mm | 0.45 m/s, 0° | - | - |
| 1778043795 | 22.78° C | 94% | 1011 hPa | 0 mm | 0.45 m/s, 0° | - | - |
| 1778042654 | 23.33° C | 94% | 1011 hPa | 0 mm | 0.45 m/s, 0° | - | - |
| 1778042594 | 23.33° C | 94% | 1011 hPa | 0 mm | 0.45 m/s, 0° | - | - |
| 1778041454 | 23.89° C | 94% | 1011 hPa | 0 mm | 0.45 m/s, 0° | - | - |
| 1778041393 | 23.89° C | 94% | 1011 hPa | 0 mm | 0.45 m/s, 0° | - | - |
| 1778040253 | 24.44° C | 94% | 1011 hPa | 0 mm | 0.89 m/s, 0° | - | - |
| 1778040193 | 24.44° C | 94% | 1011 hPa | 0 mm | 0.89 m/s, 0° | - | - |
| 1778039053 | 25° C | 94% | 1011 hPa | 0 mm | 0.89 m/s, 0° | - | - |
| 1778038992 | 25° C | 94% | 1011 hPa | 0 mm | 0.89 m/s, 0° | - | - |
| 1778037852 | 25.56° C | 94% | 1010 hPa | 0 mm | 0.89 m/s, 0° | - | - |
| 1778037792 | 25.56° C | 94% | 1010 hPa | 0 mm | 0.89 m/s, 0° | - | - |
| 1778036651 | 22.78° C | 94% | 1011 hPa | 0 mm | 1.34 m/s, 320° | - | - |
| 1778036591 | 22.78° C | 94% | 1011 hPa | 0 mm | 1.34 m/s, 320° | - | - |
| 1778035451 | 23.33° C | 94% | 1011 hPa | 0 mm | 1.34 m/s, 320° | - | - |
| 1778035390 | 23.33° C | 94% | 1011 hPa | 0 mm | 1.34 m/s, 320° | - | - |
| 1778034250 | 23.89° C | 94% | 1010 hPa | 0 mm | 0.45 m/s, 0° | - | - |
* Rain latest hour (hover to see other rain measurements)
** Current wind speed in m/s (hover to see current wind gust speed)